Kirksville, MO

12:58 PM CST on February 18, 2018 (GMT -0600)
Kirksville Regional

Weather History for KIRK - June, 2013

Change the Weather History Date:

Sunday, June 2, 2013

  Actual Average Record
Temperature  
Mean Temperature 52 °F 68 °F  
Max Temperature 61 °F 78 °F 100 °F (1934)
Min Temperature 43 °F 57 °F 41 °F (1956)
Degree Days  
Heating Degree Days 13 1  
Month to date heating degree days 13 2  
Since 1 June heating degree days 13 2  
Since 1 July heating degree days 6048 5842  
Cooling Degree Days 0 4  
Month to date cooling degree days 0 8  
Year to date cooling degree days 68 70  
Since 1 June cooling degree days 0 8  
Growing Degree Days 4 (Base 50)    
Moisture  
Dew Point 50 °F    
Average Humidity 81    
Maximum Humidity 100    
Minimum Humidity 62    
Precipitation  
Precipitation 0.00 in 0.19 in 2.14 in (1927)
Month to date precipitation T 0.37  
Year to date precipitation 24.47 14.52  
Sea Level Pressure  
Sea Level Pressure 30.03 in    
Wind  
Wind Speed 6 mph (NW)    
Max Wind Speed 16 mph    
Max Gust Speed 22 mph    
Visibility 10 miles    
Events      
T = Trace of Precipitation, MM = Missing Value Source: NWS Daily Summary

Daily Weather History Graph

Daily Weather History Graph

Search for Another Location

Airport or City:

Trip Planner

Search our weather history database for the weather conditions in past years. The results will help you decide how hot, cold, wet, or windy it might be!

Date:

Astronomy

Jun. 02, 2013 Rise Set
Actual Time 5:42 AM CDT 8:34 PM CDT
Civil Twilight 5:10 AM CDT 9:06 PM CDT
Nautical Twilight 4:29 AM CDT 9:47 PM CDT
Astronomical Twilight 3:43 AM CDT 10:34 PM CDT
Moon 2:09 AM CDT (6/2) 3:05 PM CDT (6/2)
Length of Visible Light 15h 56m
Length of Day
14h 51m
Waning Crescent, 30% of the Moon is Illuminated
Jun 2
Waning Crescent
Jun 8
New
Jun 16
First Quarter
Jun 23
Full
Jun 29
Last Quarter

Hourly Weather History & Observations

Time (CDT) Temp. Dew Point Humidity Pressure Visibility Wind Dir Wind Speed Gust Speed Precip Events Conditions
12:55 AM 59.0 °F 55.0 °F 87% 29.93 in 10.0 mi WNW 10.4 mph 18.4 mph N/A   Overcast
1:55 AM 57.9 °F 54.0 °F 87% 29.93 in 10.0 mi NW 10.4 mph 17.3 mph N/A   Overcast
2:55 AM 57.9 °F 54.0 °F 87% 29.94 in 10.0 mi WNW 10.4 mph - N/A   Overcast
3:11 AM 57.2 °F 53.6 °F 88% 29.94 in 10.0 mi WNW 9.2 mph - N/A   Overcast
3:55 AM 57.0 °F 53.1 °F 87% 29.96 in 10.0 mi NW 8.1 mph - N/A   Overcast
4:55 AM 55.9 °F 52.0 °F 87% 29.98 in 10.0 mi WNW 6.9 mph - N/A   Overcast
5:55 AM 55.0 °F 51.1 °F 86% 29.99 in 10.0 mi NW 9.2 mph - N/A   Overcast
6:19 AM 55.4 °F 51.8 °F 88% 29.99 in 10.0 mi NW 6.9 mph - N/A   Overcast
6:55 AM 55.9 °F 51.1 °F 84% 30.01 in 10.0 mi WNW 8.1 mph - N/A   Overcast
7:40 AM 55.4 °F 51.8 °F 88% 30.01 in 10.0 mi NW 5.8 mph - N/A   Overcast
7:55 AM 55.9 °F 51.1 °F 84% 30.02 in 10.0 mi NW 8.1 mph - N/A   Overcast
8:07 AM 55.4 °F 51.8 °F 88% 30.02 in 10.0 mi NW 9.2 mph - N/A   Overcast
8:55 AM 57.0 °F 51.1 °F 81% 30.04 in 10.0 mi NW 6.9 mph - N/A   Overcast
9:55 AM 55.9 °F 50.0 °F 80% 30.05 in 10.0 mi NW 6.9 mph - N/A   Overcast
10:55 AM 57.0 °F 50.0 °F 77% 30.06 in 10.0 mi North 9.2 mph - N/A   Overcast
11:55 AM 57.9 °F 48.9 °F 72% 30.06 in 10.0 mi NW 9.2 mph - N/A   Overcast
12:52 PM 60.8 °F 50.0 °F 68% 30.06 in 10.0 mi NW 6.9 mph - N/A   Overcast
12:55 PM 60.1 °F 50.0 °F 69% 30.07 in 10.0 mi Variable 6.9 mph - N/A   Overcast
1:55 PM 57.9 °F 48.9 °F 72% 30.08 in 10.0 mi NW 6.9 mph - N/A   Overcast
2:55 PM 61.0 °F 48.9 °F 64% 30.08 in 10.0 mi NW 8.1 mph - N/A   Overcast
3:55 PM 60.1 °F 50.0 °F 69% 30.07 in 10.0 mi NW 10.4 mph - N/A   Overcast
4:55 PM 59.0 °F 48.9 °F 69% 30.06 in 10.0 mi NW 9.2 mph - N/A   Overcast
5:55 PM 59.0 °F 48.0 °F 67% 30.06 in 10.0 mi NNW 9.2 mph - N/A   Overcast
6:55 PM 59.0 °F 46.9 °F 64% 30.06 in 10.0 mi North 3.5 mph - N/A   Overcast
7:55 PM 57.9 °F 48.0 °F 70% 30.06 in 10.0 mi NNE 4.6 mph - N/A   Overcast
8:55 PM 55.0 °F 48.0 °F 77% 30.06 in 10.0 mi Calm Calm - N/A   Mostly Cloudy
9:55 PM 48.9 °F 46.9 °F 93% 30.07 in 10.0 mi Calm Calm - N/A   Clear
10:55 PM 46.9 °F 46.0 °F 97% 30.08 in 10.0 mi Calm Calm - N/A   Clear
11:55 PM 46.0 °F 45.0 °F 96% 30.09 in 10.0 mi Calm Calm - N/A   Clear